User: anonymous   Login
Location: Vaughan
(31.9146°N, 97.1736°W)
Time: 08:32:48
(UTC+00:00)
Language:

CZ-3 Stage 3 - Orbit

View from above orbital plane
View from above orbital plane
View from above satellite
View from above satellite

Ground track
Ground track

The orbit is defined by the following mean orbital elements,

1 20559U          26044.77326308 +.00000000 +00000-0 +10643-2 0 00002
2 20559  30.7947 283.6690 4127657 199.8805 137.6966  7.31234369    05
Epoch (UTC): 13 February 2026 18:33:29
Eccentricity: 0.4127657
inclination: 30.7947°
perigee height: 206 km
apogee height: 9462 km
right ascension of ascending node: 283.6690°
argument of perigee: 199.8805°
revolutions per day: 7.31234369
mean anomaly at epoch: 137.6966°

The dashed part of the orbit path shows where the satellite is in the earth's shadow,  

DLR